Overview Statistics Trail Chart Weather Telemetry Raw packets
 

This is the latest recevied weather packets stored in our database for station/object KA1AL. If no packets are shown the sender has not sent any weather packets the latest 10 day(s).

<< 38 39 40 41 42 43 44 >>
Time Temp. Humidity Pressure Rain* Wind** Luminosity Snow
1777425459 8.89° C 37% 1019.9 hPa 0 mm - 0 W/m² -
1777425156 8.89° C 37% 1019.7 hPa 0 mm - 0 W/m² -
1777424852 8.89° C 38% 1019.9 hPa 0 mm - 0 W/m² -
1777424548 8.89° C 39% 1019.8 hPa 0 mm - 0 W/m² -
1777424244 8.89° C 39% 1020.4 hPa 0 mm - 0 W/m² -
1777423940 8.89° C 39% 1020 hPa 0 mm - 0 W/m² -
1777423636 8.89° C 40% 1019.7 hPa 0 mm - 0 W/m² -
1777423332 9.44° C 40% 1019.9 hPa 0 mm - 0 W/m² -
1777423027 9.44° C 39% 1019.7 hPa 0 mm - 0 W/m² -
1777422723 10° C 39% 1019.8 hPa 0 mm - 0 W/m² -
1777422418 10° C 37% 1019.6 hPa 0 mm - 0 W/m² -
1777422113 10° C 42% 1019.7 hPa 0 mm - 0 W/m² -
1777421812 10° C 44% 1019.7 hPa 0 mm - 0 W/m² -
1777421508 10.56° C 43% 1019.7 hPa 0 mm - 0 W/m² -
1777421204 10.56° C 43% 1019.8 hPa 0 mm - 0 W/m² -
1777420901 11.11° C 44% 1020 hPa 0 mm - 0 W/m² -
1777420597 11.11° C 45% 1019.8 hPa 0 mm - 0 W/m² -
1777420294 11.11° C 45% 1019.9 hPa 0 mm - 0 W/m² -
1777419989 11.67° C 46% 1019.7 hPa 0 mm - 0 W/m² -
1777419686 11.67° C 46% 1019.9 hPa 0 mm - 0 W/m² -
1777419384 11.67° C 47% 1020.1 hPa 0 mm - 2 W/m² -
1777419083 11.67° C 47% 1019.8 hPa 0 mm - 5 W/m² -
1777418783 11.67° C 47% 1020 hPa 0 mm - 6 W/m² -
1777418480 12.22° C 48% 1019.8 hPa 0 mm - 10 W/m² -
1777418175 12.22° C 48% 1019.8 hPa 0 mm - 12 W/m² -

* Rain latest hour (hover to see other rain measurements)
** Current wind speed in m/s (hover to see current wind gust speed)